EW9023 Weather Reports


Display with metric or nautical units.
time (UTC)temp
F
wind
direction
speed
MPH
gust
MPH
rain 1hr
in
rain 24hr
in
rain mn
in
humidity
%
barometer
mb
20210723192416 96 225 6.0 8.0 0.00 0.07 0.00 53 1014.1
20210723191416 96 225 5.0 6.0 0.00 0.07 0.00 53 1014.2
20210723190417 96 202 2.0 3.0 0.00 0.07 0.00 49 1014.2
20210723185416 96 180 6.0 8.0 0.00 0.07 0.00 48 1014.3
20210723184418 96 90 5.0 6.0 0.00 0.07 0.00 48 1014.4
20210723183417 96 135 5.0 7.0 0.00 0.07 0.00 48 1014.5
20210723182417 95 0.0 1.0 0.00 0.07 0.00 49 1014.6
20210723181417 95 157 8.0 11.0 0.00 0.07 0.00 50 1014.6
20210723180415 95 157 8.0 10.0 0.00 0.07 0.00 50 1014.6
20210723175417 95 180 7.0 8.0 0.00 0.07 0.00 52 1014.6
20210723174417 94 135 9.0 12.0 0.00 0.07 0.00 53 1014.5
20210723173417 94 157 8.0 11.0 0.00 0.07 0.00 53 1014.5
20210723172417 93 135 7.0 8.0 0.00 0.07 0.00 55 1014.5
20210723171416 93 135 7.0 10.0 0.00 0.07 0.00 55 1014.6
20210723170416 93 157 8.0 9.0 0.00 0.07 0.00 54 1014.6
20210723165416 93 112 8.0 9.0 0.00 0.07 0.00 55 1014.5
20210723164417 93 135 9.0 11.0 0.00 0.07 0.00 54 1014.6
20210723163416 93 157 9.0 11.0 0.00 0.07 0.00 54 1014.6
20210723162416 93 135 8.0 10.0 0.00 0.07 0.00 54 1014.7
20210723161416 92 135 9.0 12.0 0.00 0.07 0.00 56 1014.8
20210723160418 92 135 10.0 11.0 0.00 0.07 0.00 57 1014.8
20210723155417 91 112 9.0 12.0 0.00 0.07 0.00 60 1014.9
20210723154416 90 112 8.0 10.0 0.00 0.07 0.00 63 1014.9
20210723153417 90 135 7.0 9.0 0.00 0.07 0.00 62 1014.9
20210723152417 89 90 7.0 9.0 0.00 0.07 0.00 65 1015.0
20210723151416 89 135 6.0 8.0 0.00 0.07 0.00 66 1015.0
20210723150416 88 90 4.0 7.0 0.00 0.07 0.00 69 1015.0
20210723145417 87 90 3.0 4.0 0.00 0.07 0.00 75 1014.9
20210723144417 86 90 4.0 4.0 0.00 0.07 0.00 76 1014.8
20210723143416 86 67 4.0 5.0 0.00 0.07 0.00 78 1014.7
20210723142417 85 67 4.0 7.0 0.00 0.07 0.00 79 1014.6
20210723141416 85 90 3.0 5.0 0.00 0.07 0.00 81 1014.5
20210723140416 83 67 4.0 5.0 0.00 0.07 0.00 83 1014.4
20210723135417 83 67 3.0 3.0 0.00 0.07 0.00 86 1014.3
20210723134416 82 67 2.0 3.0 0.00 0.07 0.00 86 1014.1
20210723133416 82 67 3.0 3.0 0.00 0.07 0.00 86 1014.1
20210723132416 82 67 2.0 2.0 0.00 0.07 0.00 86 1014.0
20210723131416 82 67 2.0 3.0 0.00 0.07 0.00 85 1014.0
20210723130416 82 90 3.0 3.0 0.00 0.07 0.00 85 1013.9
20210723125416 82 112 2.0 3.0 0.00 0.07 0.00 84 1013.8
20210723124416 82 0.0 0.0 0.00 0.07 0.00 84 1013.7
20210723123416 83 0.0 0.0 0.00 0.07 0.00 83 1013.6
20210723122418 83 0.0 0.0 0.00 0.07 0.00 82 1013.5
20210723121416 83 112 2.0 2.0 0.00 0.07 0.00 82 1013.4
20210723120416 83 0.0 0.0 0.00 0.07 0.00 82 1013.4
20210723115416 84 0.0 1.0 0.00 0.07 0.00 82 1013.3
20210723114416 84 112 2.0 3.0 0.00 0.07 0.00 82 1013.2
20210723113416 84 112 4.0 7.0 0.00 0.07 0.00 81 1013.0
20210723112417 84 135 3.0 3.0 0.00 0.07 0.00 81 1012.9
20210723111416 84 112 4.0 6.0 0.00 0.07 0.00 81 1012.9
20210723110416 85 112 5.0 5.0 0.00 0.07 0.00 80 1013.0
20210723105417 85 135 7.0 8.0 0.00 0.07 0.00 80 1013.1
20210723104416 85 135 8.0 9.0 0.00 0.07 0.00 80 1013.2
20210723103416 85 112 7.0 9.0 0.00 0.07 0.00 81 1013.2
20210723102416 85 135 4.0 5.0 0.00 0.07 0.00 81 1013.3
20210723101416 85 112 9.0 10.0 0.00 0.07 0.00 80 1013.2
20210723100416 85 112 11.0 12.0 0.00 0.07 0.00 80 1013.2
20210723095416 85 112 10.0 12.0 0.00 0.07 0.00 80 1013.2
20210723094420 85 112 10.0 12.0 0.00 0.07 0.00 79 1013.1
20210723093417 85 112 9.0 10.0 0.00 0.07 0.00 79 1012.9
20210723092416 85 112 8.0 9.0 0.00 0.07 0.00 78 1013.0
20210723091416 85 112 4.0 6.0 0.00 0.07 0.00 77 1013.0
20210723090416 85 112 8.0 10.0 0.00 0.07 0.00 78 1013.1
20210723085416 85 112 8.0 11.0 0.00 0.07 0.00 79 1013.1
20210723084416 84 112 5.0 7.0 0.00 0.07 0.00 79 1013.0
20210723083416 84 90 4.0 6.0 0.00 0.07 0.00 78 1013.0
20210723082416 85 90 4.0 7.0 0.00 0.07 0.00 78 1013.0
20210723081416 84 112 4.0 5.0 0.00 0.07 0.00 79 1012.9
20210723080415 84 112 3.0 3.0 0.00 0.07 0.00 80 1012.7
20210723075416 83 112 3.0 3.0 0.00 0.07 0.00 82 1012.7
20210723074416 83 0.0 1.0 0.00 0.07 0.00 82 1012.8
20210723073416 84 112 3.0 3.0 0.00 0.07 0.00 81 1013.0
20210723072416 85 157 2.0 2.0 0.00 0.07 0.00 80 1012.9
20210723071416 85 157 2.0 3.0 0.00 0.07 0.00 79 1013.1
20210723070415 85 157 3.0 3.0 0.00 0.07 0.00 79 1012.9
20210723065416 85 157 3.0 4.0 0.00 0.07 0.07 79 1013.0
20210723064415 85 157 3.0 3.0 0.00 0.07 0.07 79 1013.1
20210723063416 85 157 4.0 5.0 0.00 0.07 0.07 79 1013.1
20210723062416 85 157 2.0 2.0 0.00 0.07 0.07 79 1013.2
20210723061416 86 157 4.0 5.0 0.00 0.07 0.07 78 1013.3
20210723060416 86 157 2.0 4.0 0.00 0.07 0.07 78 1013.2
20210723055416 86 157 3.0 4.0 0.00 0.07 0.07 78 1013.2
20210723054416 86 157 2.0 4.0 0.00 0.07 0.07 77 1013.2
20210723053416 86 157 4.0 5.0 0.00 0.07 0.07 77 1013.1
20210723052416 86 157 1.0 2.0 0.00 0.07 0.07 77 1012.9
20210723051416 86 157 5.0 6.0 0.00 0.07 0.07 76 1012.6
20210723050416 86 180 3.0 4.0 0.00 0.07 0.07 76 1012.5
20210723045416 86 157 5.0 6.0 0.00 0.07 0.07 76 1012.5
20210723044417 86 157 6.0 7.0 0.00 0.07 0.07 77 1012.4
20210723043416 87 157 6.0 6.0 0.00 0.07 0.07 76 1012.6
20210723042417 87 180 4.0 5.0 0.00 0.07 0.07 75 1012.5
20210723041416 87 0.0 0.0 0.00 0.07 0.07 75 1012.4
20210723040416 87 180 5.0 6.0 0.00 0.07 0.07 75 1012.0
20210723035417 87 180 7.0 9.0 0.00 0.07 0.07 75 1011.7
20210723034416 87 180 9.0 12.0 0.00 0.07 0.07 76 1011.8
20210723033416 87 180 9.0 12.0 0.00 0.07 0.07 77 1011.7
20210723032416 87 202 7.0 8.0 0.00 0.07 0.07 77 1011.5
20210723031416 87 180 6.0 6.0 0.00 0.07 0.07 76 1011.7
20210723030416 87 157 8.0 10.0 0.00 0.07 0.07 76 1011.6
20210723025416 88 180 12.0 16.0 0.00 0.07 0.07 76 1011.4
20210723024416 88 157 10.0 11.0 0.00 0.07 0.07 75 1011.4
20210723023416 88 180 14.0 17.0 0.00 0.07 0.07 73 1011.3
20210723022416 89 180 13.0 16.0 0.00 0.07 0.07 72 1011.2
20210723021416 89 157 14.0 18.0 0.00 0.07 0.07 69 1011.1
20210723020416 90 157 11.0 14.0 0.00 0.07 0.07 66 1011.0
20210723015416 90 180 9.0 12.0 0.00 0.07 0.07 66 1010.7
20210723014416 91 180 14.0 16.0 0.00 0.07 0.07 63 1010.7
20210723013416 92 180 10.0 13.0 0.00 0.07 0.07 61 1010.7
20210723012416 92 180 13.0 17.0 0.00 0.07 0.07 60 1010.6
20210723011416 92 180 10.0 13.0 0.00 0.07 0.07 61 1010.7
20210723010432 92 180 12.0 13.0 0.00 0.07 0.07 60 1010.6
20210723005416 92 180 9.0 10.0 0.00 0.07 0.07 61 1010.4
20210723004421 92 202 10.0 12.0 0.00 0.07 0.07 60 1010.3
20210723003415 92 180 12.0 15.0 0.00 0.07 0.07 59 1010.2
20210723002416 93 180 14.0 19.0 0.00 0.07 0.07 58 1010.3
20210723001416 93 157 16.0 21.0 0.00 0.07 0.07 57 1010.6
20210723000416 93 180 19.0 23.0 0.00 0.07 0.07 58 1010.7
20210722235416 93 180 19.0 23.0 0.00 0.07 0.07 57 1010.6
20210722234415 93 180 17.0 20.0 0.00 0.07 0.07 57 1010.7
20210722233415 94 180 16.0 18.0 0.00 0.07 0.07 56 1010.8
20210722232416 95 180 18.0 24.0 0.00 0.07 0.07 53 1010.6
20210722231415 97 180 15.0 19.0 0.00 0.07 0.07 52 1010.3
20210722230416 97 202 16.0 21.0 0.00 0.07 0.07 48 1010.2
20210722225415 97 180 16.0 22.0 0.00 0.07 0.07 47 1010.3
20210722224415 97 180 17.0 21.0 0.00 0.07 0.07 48 1010.4
20210722223415 98 180 19.0 24.0 0.00 0.07 0.07 49 1010.2
20210722222416 97 180 19.0 25.0 0.00 0.07 0.07 51 1010.3
20210722221416 97 180 19.0 23.0 0.00 0.07 0.07 51 1010.4
20210722220415 97 202 13.0 15.0 0.00 0.07 0.07 51 1010.1
20210722215416 96 180 18.0 21.0 0.01 0.07 0.07 52 1010.1
20210722214416 95 202 15.0 18.0 0.03 0.07 0.07 53 1010.2
20210722213415 95 202 14.0 17.0 0.03 0.07 0.07 54 1010.3
20210722212415 95 180 11.0 14.0 0.03 0.07 0.07 49 1010.5
20210722211415 95 202 11.0 13.0 0.03 0.07 0.07 53 1010.6
20210722210416 94 202 7.0 8.0 0.07 0.07 0.07 56 1010.9
20210722205415 95 202 10.0 12.0 0.06 0.06 0.06 54 1010.9
20210722204415 95 202 10.0 13.0 0.04 0.04 0.04 54 1011.2
20210722203415 95 202 12.0 17.0 0.04 0.04 0.04 54 1011.2
20210722202416 94 180 8.0 10.0 0.04 0.04 0.04 59 1011.3
20210722201416 94 337 6.0 8.0 0.04 0.04 0.04 59 1011.4
20210722200418 100 157 12.0 16.0 0.00 0.00 0.00 45 1011.6
20210722195418 100 180 12.0 16.0 0.00 0.00 0.00 45 1011.4
20210722194415 99 202 9.0 11.0 0.00 0.00 0.00 46 1011.5
20210722193417 99 157 11.0 14.0 0.00 0.00 0.00 46 1011.5